Location: Newark
(42.7133°N, 87.7910°W)
Time: 20:03:29
(UTC+00:00)

Transit 4A - Pass Details

Date: 22 September 2019
Orbit: 866 x 978 km, 66.8° (Epoch: 16 October)

Event Time Altitude Azimuth Distance (km) Brightness Sun altitude
Rises 00:17:21 0° 335° (NNW) 3,611 11.4 -5.7°
Reaches altitude 10° 00:20:32 10° 350° (N) 2,643 10.5 -6.3°
Maximum altitude 00:25:17 23° 41° (NE) 1,855 9.2 -7.2°
Drops below altitude 10° 00:29:54 10° 92° (E) 2,574 9.5 -8.0°
Enters shadow 00:30:03 10° 93° (E) 2,612 9.6 -8.1°
